{"data":{"norad_id":60389,"epoch":"2026-09-22T19:56:49.729632Z","epoch_age_seconds":82219,"freshness":"FRESH","line1":"1 60389U 24140L   26265.83113113  .00000032  00000+0  30855-4 0  9998","line2":"2 60389  88.9605 269.6028 0016445  96.1253 264.1773 13.51021165105475","mean_motion":13.51021165,"eccentricity":0.0016445,"inclination_deg":88.9605,"raan_deg":269.6028,"arg_perigee_deg":96.1253,"mean_anomaly_deg":264.1773,"bstar":3.0855e-5,"rev_number":10547,"period_min":106.58604300992,"perigee_km":1056.2578110566,"apogee_km":1080.7498126869,"semimajor_km":7446.6408118717,"source":"CELESTRAK","updated_at":"2026-09-23T09:00:20.599708Z"}}